Location: Arbon
(43.0005°N, 0.7472°E)
Time: 19:57:25
(UTC+00:00)

Vanguard 2 Rocket - Visible Passes

Search period start: 19 June 2021 00:00
Search period end: 29 June 2021 00:00
Orbit: 554 x 3326 km, 32.9° (Epoch: 18 June)

Date Brightness Start Highest point End Pass type
(mag) Time Alt. Az. Time Alt. Az. Time Alt. Az.
19 Jun 9.3 01:30:01 10° W 01:34:27 17° WSW 01:34:27 17° WSW visible
19 Jun 9.4 19:49:35 10° WSW 20:08:26 54° S 20:21:26 10° E visible
19 Jun 8.8 22:07:37 10° W 22:24:14 54° S 22:31:55 21° SE visible
20 Jun 8.8 00:26:54 10° W 00:37:40 30° SW 00:37:40 30° SW visible
20 Jun 9.1 21:05:00 10° WSW 21:23:18 57° S 21:34:56 10° ESE visible
20 Jun 8.6 23:24:00 10° W 23:38:00 41° SSW 23:40:52 36° S visible
21 Jun 9.7 01:45:32 10° WSW 01:46:37 11° WSW 01:46:37 11° WSW visible
21 Jun 9.4 20:02:39 10° WSW 20:21:56 58° S 20:35:15 10° ESE visible
21 Jun 8.9 22:21:09 10° W 22:37:39 50° SSW 22:44:02 27° SE visible
22 Jun 9.3 00:41:11 10° W 00:49:47 23° SW 00:49:47 23° SW visible
22 Jun 9.2 21:18:26 10° W 21:36:47 56° S 21:47:14 16° ESE visible
22 Jun 8.9 23:37:51 10° W 23:51:05 34° SW 23:52:58 32° SSW visible
23 Jun 9.4 20:15:58 10° WSW 20:35:26 60° S 20:48:59 10° ESE visible
23 Jun 8.9 22:34:49 10° W 22:50:54 44° SSW 22:56:09 31° SSE visible
24 Jun 9.7 00:56:16 10° W 01:01:54 16° WSW 01:01:54 16° WSW visible
24 Jun 9.3 21:31:59 10° W 21:50:10 52° SSW 21:59:20 21° SE visible
24 Jun 9.3 23:52:02 10° W 00:03:56 26° SW 00:05:05 26° SW visible
25 Jun 9.5 20:29:27 10° W 20:48:53 58° S 21:02:31 10° ESE visible
25 Jun 9.1 22:48:38 10° W 23:03:55 37° SW 23:08:15 30° S visible
26 Jun 9.3 21:45:38 10° W 22:03:21 46° SSW 22:11:27 25° SSE visible
27 Jun 9.7 00:06:55 10° W 00:16:33 19° SW 00:17:11 19° SW visible
27 Jun 9.5 20:43:01 10° W 21:02:12 54° SSW 21:14:38 15° SE visible
27 Jun 9.4 23:02:46 10° W 23:16:43 29° SW 23:20:22 26° SSW visible
28 Jun 9.4 21:59:28 10° W 22:16:19 39° SSW 22:23:35 25° SSE visible
